User: anonymous   Login
Location: Ostrava
(49.8330°N, 18.2830°E)
Time: 05:10:15
(UTC+02:00)
Language:

Iridium 7 - Orbit

View from above orbital plane
View from above orbital plane
View from above satellite
View from above satellite

Ground track
Ground track

The orbit data is extracted from the following two-line orbital elements,

1 24793U 97020B   15091.88936576  .00000205  00000-0  66236-4 0  9995
2 24793 086.3931 296.3754 0002073 089.0621 016.1108 14.34215225937488
Epoch (UTC): 01 April 2015 21:20:41
Eccentricity: 0.0002073
inclination: 86.3931°
perigee height: 776 km
apogee height: 779 km
right ascension of ascending node: 296.3754°
argument of perigee: 89.0621°
revolutions per day: 14.34215225
mean anomaly at epoch: 16.1108°
orbit number at epoch: 93748

The dashed part of the orbit path shows where the satellite is in the earth's shadow,  

DLR